This demonstration page uses our WeatherBlox Daily Observations layout. Learn more.

Left ArrowRight Arrow

34.74481, -87.66753

Hourly Observations for June 26, 2022

Temp ( °F °C ) Dew Point ( °F °C ) Humidity (%) Winds ( mph kmh ) Pressure ( in mb ) Visibility ( mi km ) Precip ( " mm )
12:53 am 00:53 Clear 79 26.1 70 21.1 74 74 SSE 3 6 30.02 1017 10 16 0.00 0.00
1:53 am 01:53 Clear 79 26.1 70 21.1 74 74 Calm 30.01 1016 10 16 0.00 0.00
2:53 am 02:53 Clear 75 23.9 70 21.1 84 84 Calm 30.02 1017 10 16 0.00 0.00
3:53 am 03:53 Clear 75 23.9 70 21.1 84 84 Calm 30.04 1017 10 16 0.00 0.00
4:53 am 04:53 Clear 74 23.3 70 21.1 88 88 E 3 6 30.05 1018 10 16 0.00 0.00
5:53 am 05:53 Sunny 74 23.3 70 21.1 88 88 SSE 6 9 30.06 1018 9 14 0.00 0.00
6:53 am 06:53 Sunny 77 25 72 22.2 85 85 Calm 30.06 1018 10 16 0.00 0.00
7:53 am 07:53 Sunny 80 26.7 72 22.2 76 76 SSE 6 9 30.07 1018 10 16 0.00 0.00
8:53 am 08:53 Sunny 83 28.3 73 22.8 72 72 SE 5 7 30.08 1019 10 16 0.00 0.00
9:53 am 09:53 Sunny 87 30.6 73 22.8 63 63 VRB 3 6 30.08 1019 10 16 0.00 0.00
10:53 am 10:53 Partly Cloudy 90 32.2 73 22.8 58 58 undefined N/A 30.08 1019 10 16 0.00 0.00
11:53 am 11:53 Sunny 93 33.9 73 22.8 52 52 S 8 13 30.07 1018 10 16 0.00 0.00
12:53 pm 12:53 Partly Cloudy 93 33.9 73 22.8 52 52 SSE 8 13 30.05 1018 10 16 0.00 0.00
1:53 pm 13:53 Mostly Sunny 94 34.4 72 22.2 49 49 SE 8 13 30.04 1017 10 16 0.00 0.00
2:02 pm 14:02 Partly Cloudy with Thunderstorms 96 35.6 72 22.2 46 46 ESE 8 13 30.02 1017 10 16 0.00 0.00
2:17 pm 14:17 Sunny 94 34.4 72 22.2 49 49 E 6 9 30.01 1016 10 16 0.00 0.00
2:25 pm 14:25 Sunny with Nearby Thunderstorms 94 34.4 71 21.7 48 48 SE 5 7 30.01 1016 10 16 0.00 0.00
2:40 pm 14:40 Sunny 94 34.4 71 21.7 48 48 ENE 6 9 30.01 1016 10 16 0.00 0.00
2:53 pm 14:53 Partly Cloudy 91 32.8 73 22.8 56 56 WNW 6 9 30.02 1017 10 16 0.00 0.00
3:53 pm 15:53 Sunny 95 35 72 22.2 47 47 VRB 3 6 29.99 1016 10 16 0.00 0.00
4:53 pm 16:53 Partly Cloudy with Nearby Thunderstorms 83 28.3 70 21.1 65 65 NNW 16 26 30.04 1017 10 16 0.00 0.00
5:00 pm 17:00 Partly Cloudy with Thunderstorms 82 27.8 69 20.6 65 65 NNW 17 28 30.03 1017 10 16 0.00 0.00
5:36 pm 17:36 Sunny with Nearby Thunderstorms 82 27.8 69 20.6 65 65 VRB 3 6 30.02 1017 10 16 0.00 0.00
5:53 pm 17:53 Partly Cloudy 82 27.8 69 20.6 65 65 Calm 30.02 1017 10 16 0.00 0.00
6:53 pm 18:53 Mostly Sunny 80 26.7 72 22.2 76 76 S 5 7 30.01 1016 10 16 0.00 0.00
7:53 pm 19:53 Sunny 79 26.1 73 22.8 82 82 SE 5 7 30.03 1017 10 16 0.00 0.00
8:53 pm 20:53 Mostly Clear 78 25.6 72 22.2 82 82 NE 3 6 30.05 1018 10 16 0.00 0.00
9:53 pm 21:53 Clear 78 25.6 71 21.7 79 79 N 7 11 30.08 1019 10 16 0.00 0.00
10:53 pm 22:53 Clear 77 25 71 21.7 82 82 NNE 5 7 30.09 1019 10 16 0.00 0.00
11:53 pm 23:53 Partly Cloudy 77 25 70 21.1 79 79 N 3 6 30.08 1019 10 16 0.00 0.00

Powered by AerisWeather